Find Starlink 36866

NORAD ID: 67895 Int'l Des: 2026-035 Owner: SPXS Country: US Constellation: starlink operational
LEOCIRCULARRETROGRADE

現在のビュー

3D地球を読み込み中...

Starlink 36866について

説明を読み込み中...

次回通過

Passes for default location (London). Set your location on the main map for personalized predictions.

高度履歴

Loading altitude history...

軌道要素

1 67895U 26035S 26146.38281233 .00023781 00000-0 73649-3 0 9993
2 67895 97.2834 79.8752 0001188 99.6581 260.4796 15.33450850 15895
Epoch: May 26, 2026 • Age: 13 hours

現在のステータス

高度 478.2 km
速度 7.63 km/s
衛星直下点 82.36°N, 115.58°E
打ち上げ日 Feb 21, 2026
運用期間 0.2 years
タイプ internet

技術仕様

分類 Payload
質量 575.00 kg
乾燥質量 530.00 kg
総質量 575.00 kg
長さ 0.30 m
直径 4.10 m
スパン 29.00 m
形状 Box + pan
製造者 SPXS
バスタイプ Starlink V2MO
フェーズステータス In Orbit
所有者/国 SPXS/US

Most Searched